Torna al catalogo

BREEZE-M DEB

TANK

AttivoHEO
NORAD 39124·DEBRIS·🇷🇺 Russia

Lanciato Mar 26, 2013 da Baikonur Cosmodrome

Loading…

Prossimi Passaggi (prossime 24 ore)

TLE

AggiornatoSource: Space-Track

Epoca: Sep 13, 2026, 00:36 UTC

1 39124U 13012C   26256.02546511  .00002175  00000-0  57484-3 0  9997
2 39124  49.4680 160.7190 5529906 205.4251 111.8811  4.74152365224490

Traccia BREEZE-M DEB in tempo reale con AllMySat

Download on the App Store